Hourly Data Report for October 19, 2014

All times are specified in Local Standard Time (LST). Add 1 hour to adjust for Daylight Saving Time where and when it is observed.

CAPE DORSET A
NUNAVUT

64°13'49.000" N
76°31'30.000" W
48.20 m
2400637
71366
YTE

Download Data

Hourly Data (October 2014)
Hourly Data Report for October 19, 2014
Temp Definition
°C
Dew Point Temp Definition
°C
Rel Hum Definition
%
Wind Dir Definition
10's deg

Wind Spd Definition
km/h
Visibility Definition
km
Stn Press Definition
kPa
Hmdx Definition


Wind Chill Definition


Weather Definition


TIME
00:00 Legend Double Dagger -5.7 -7.7 86 30 11 16.1 101.40   -10 LegendNANA
01:00 Legend Double Dagger -5.6 -7.4 87 32 8 16.1 101.40   -9 LegendNANA
02:00 Legend Double Dagger -6.0 -7.8 87 30 8 16.1 101.40   -10 LegendNANA
03:00 Legend Double Dagger -6.0 -8.0 86 LegendMM 4 16.1 101.41   -8 LegendNANA
04:00 Legend Double Dagger -5.9 -7.7 87 13 5 16.1 101.41   -8 LegendNANA
05:00 Legend Double Dagger -5.6 -7.3 88 12 9 16.1 101.39   -10 LegendNANA
06:00 Legend Double Dagger -5.2 -6.9 88 13 9 16.1 101.37   -9 LegendNANA
07:00 Legend Double Dagger -4.9 -6.6 88 11 9 16.1 101.35   -9 LegendNANA
08:00 Legend Double Dagger -4.7 -6.5 87 17 8 16.1 101.34   -8 LegendNANA
09:00 Legend Double Dagger -4.7 -6.4 88 13 9 16.1 101.34   -9 Snow
10:00 Legend Double Dagger -4.5 -6.3 87   0 16.1 101.32     Snow
11:00 Legend Double Dagger -4.1 -5.8 88 16 9 16.1 101.32   -8 LegendNANA
12:00 Legend Double Dagger -4.1 -5.8 88 18 5 16.1 101.31   -6 LegendNANA
13:00 Legend Double Dagger -4.3 -6.0 88 22 8 16.1 101.30   -8 LegendNANA
14:00 Legend Double Dagger -4.3 -6.2 87 17 9 16.1 101.28   -8 LegendNANA
15:00 Legend Double Dagger -4.3 -6.3 86 18 5 16.1 101.28   -6 LegendNANA
16:00 Legend Double Dagger -4.3 -6.0 88 19 11 16.1 101.28   -9 LegendNANA
17:00 Legend Double Dagger -4.2 -5.6 90 15 9 16.1 101.26   -8 Snow
18:00 Legend Double Dagger -4.1 -5.2 92 20 11 16.1 101.26   -9 LegendNANA
19:00 Legend Double Dagger -4.3 -5.7 90 19 9 16.1 101.25   -8 LegendNANA
20:00 Legend Double Dagger -4.2 -5.6 90 22 11 16.1 101.22   -9 LegendNANA
21:00 Legend Double Dagger -4.3 -5.7 90 21 17 16.1 101.20   -10 LegendNANA
22:00 Legend Double Dagger -4.2 -6.1 87 19 9 16.1 101.18   -8 LegendNANA
23:00 Legend Double Dagger -4.0 -5.6 89 18 9 16.1 101.13   -8 LegendNANA

Notes on Data Quality.

Legend

  • E = Estimated
  • M = Missing
  • NA = Not Available
  • ‡ = Partner data that is not subject to review by the National Climate Archives
Date modified: